EN

Hourly Weather Almásfüzitõ

Today, 19 January, Tuesday

Time Temperature Precipitation Wind Pressure Humidity
00:00 -3°C° 0.2 mm 2 mps 757 mmHg 96%
01:00 -3°C° 0.2 mm 2 mps 757 mmHg 96%
02:00 -3°C° 0.2 mm 2 mps 756 mmHg 95%
03:00 -3°C° 0.2 mm 2 mps 756 mmHg 95%
04:00 -2°C° 0.2 mm 3 mps 756 mmHg 95%
05:00 -2°C° 0.3 mm 3 mps 756 mmHg 94%
06:00 -3°C° 0.3 mm 4 mps 756 mmHg 94%
07:00 -2°C° 0.3 mm 4 mps 756 mmHg 94%
08:00 -2°C° 0 mm 4 mps 756 mmHg 90%
09:00 -1°C° 0 mm 4 mps 756 mmHg 87%
10:00 0°C° 0 mm 3 mps 756 mmHg 83%
11:00 0°C° 0 mm 3 mps 755 mmHg 83%
12:00 +1°C° 0 mm 3 mps 755 mmHg 83%
13:00 +2°C° 0 mm 2 mps 754 mmHg 83%
14:00 +1°C° 0 mm 2 mps 754 mmHg 83%
15:00 +1°C° 0 mm 2 mps 753 mmHg 84%
16:00 -1°C° 0 mm 2 mps 753 mmHg 84%
17:00 -1°C° 0 mm 2 mps 753 mmHg 84%
18:00 -1°C° 0 mm 2 mps 753 mmHg 85%
19:00 -1°C° 0 mm 3 mps 752 mmHg 86%
20:00 -1°C° 0.3 mm 3 mps 752 mmHg 89%
21:00 -1°C° 0.3 mm 3 mps 752 mmHg 92%
22:00 -1°C° 0.3 mm 3 mps 752 mmHg 96%
23:00 -1°C° 0.5 mm 3 mps 752 mmHg 94%

Tomorrow, 20 January, Wednesday

Time Temperature Precipitation Wind Pressure Humidity
00:00 0°C° 0.5 mm 3 mps 752 mmHg 93%
01:00 0°C° 0.5 mm 3 mps 752 mmHg 91%
02:00 0°C° 0 mm 3 mps 751 mmHg 89%
03:00 0°C° 0 mm 3 mps 751 mmHg 86%
04:00 0°C° 0 mm 3 mps 751 mmHg 83%
05:00 0°C° 0 mm 3 mps 751 mmHg 83%
06:00 +1°C° 0 mm 2 mps 751 mmHg 82%
07:00 -1°C° 0 mm 2 mps 751 mmHg 81%
08:00 +1°C° 0 mm 2 mps 751 mmHg 83%
09:00 +2°C° 0 mm 2 mps 751 mmHg 84%
10:00 +3°C° 0 mm 2 mps 751 mmHg 86%
11:00 +3°C° 0 mm 2 mps 751 mmHg 88%
12:00 +4°C° 0 mm 2 mps 751 mmHg 89%
13:00 +5°C° 0 mm 2 mps 751 mmHg 91%
14:00 +4°C° 0 mm 2 mps 750 mmHg 90%
15:00 +4°C° 0 mm 2 mps 750 mmHg 89%
16:00 +2°C° 0 mm 3 mps 750 mmHg 89%
17:00 +2°C° 0 mm 3 mps 750 mmHg 89%
18:00 +2°C° 0 mm 3 mps 750 mmHg 90%
19:00 +2°C° 0 mm 3 mps 750 mmHg 90%
20:00 +2°C° 0 mm 3 mps 750 mmHg 91%
21:00 +1°C° 0 mm 4 mps 750 mmHg 91%
22:00 +1°C° 0 mm 4 mps 750 mmHg 92%
23:00 +1°C° 0 mm 4 mps 749 mmHg 92%

Day after tomorrow, 21 January, Thursday

Time Temperature Precipitation Wind Pressure Humidity
00:00 +1°C° 0 mm 4 mps 749 mmHg 91%
01:00 +2°C° 0 mm 5 mps 749 mmHg 91%
02:00 +2°C° 0 mm 5 mps 748 mmHg 90%
03:00 +2°C° 0 mm 5 mps 748 mmHg 89%
04:00 +2°C° 0 mm 5 mps 747 mmHg 88%
05:00 +3°C° 0 mm 6 mps 747 mmHg 87%
06:00 +3°C° 0 mm 6 mps 747 mmHg 86%
07:00 +3°C° 0 mm 6 mps 747 mmHg 85%
08:00 +3°C° 0 mm 6 mps 747 mmHg 84%
09:00 +4°C° 0 mm 6 mps 747 mmHg 83%
10:00 +5°C° 0 mm 6 mps 747 mmHg 81%
11:00 +6°C° 0 mm 7 mps 746 mmHg 79%
12:00 +8°C° 0 mm 7 mps 746 mmHg 77%
13:00 +8°C° 0 mm 7 mps 746 mmHg 75%
14:00 +8°C° 0 mm 7 mps 746 mmHg 76%
15:00 +8°C° 0 mm 7 mps 746 mmHg 76%
16:00 +6°C° 0 mm 7 mps 746 mmHg 76%
17:00 +7°C° 0 mm 6 mps 746 mmHg 78%
18:00 +7°C° 0 mm 6 mps 746 mmHg 79%
19:00 +7°C° 0 mm 6 mps 746 mmHg 80%
20:00 +5°C° 0 mm 6 mps 746 mmHg 81%
21:00 +5°C° 0 mm 6 mps 746 mmHg 81%
22:00 +5°C° 0 mm 6 mps 745 mmHg 82%
23:00 +5°C° 0 mm 6 mps 745 mmHg 82%

22 January, Friday

Time Temperature Precipitation Wind Pressure Humidity
00:00 +5°C° 0 mm 6 mps 744 mmHg 83%
01:00 +5°C° 0 mm 6 mps 744 mmHg 83%
02:00 +4°C° 0 mm 6 mps 743 mmHg 84%
03:00 +4°C° 0 mm 7 mps 743 mmHg 84%
04:00 +4°C° 0 mm 7 mps 742 mmHg 85%
05:00 +4°C° 0 mm 7 mps 742 mmHg 84%
06:00 +5°C° 0 mm 7 mps 741 mmHg 84%
07:00 +5°C° 0 mm 7 mps 741 mmHg 83%
08:00 +6°C° 0 mm 7 mps 741 mmHg 81%
09:00 +6°C° 0 mm 7 mps 741 mmHg 80%
10:00 +8°C° 0 mm 6 mps 741 mmHg 78%
11:00 +8°C° 0 mm 6 mps 740 mmHg 78%
12:00 +9°C° 0 mm 6 mps 740 mmHg 77%
13:00 +9°C° 0 mm 5 mps 740 mmHg 77%
14:00 +8°C° 0.8 mm 6 mps 739 mmHg 80%
15:00 +8°C° 0.8 mm 6 mps 739 mmHg 84%
16:00 +7°C° 0.8 mm 6 mps 738 mmHg 87%
17:00 +7°C° 0.7 mm 6 mps 739 mmHg 89%
18:00 +6°C° 0.7 mm 5 mps 739 mmHg 90%
19:00 +6°C° 0.7 mm 5 mps 739 mmHg 92%
20:00 +5°C° 0.9 mm 5 mps 739 mmHg 91%
21:00 +3°C° 0.9 mm 6 mps 740 mmHg 91%
22:00 +3°C° 0.9 mm 6 mps 740 mmHg 91%
23:00 +2°C° 0.2 mm 6 mps 741 mmHg 92%

23 January, Saturday

Time Temperature Precipitation Wind Pressure Humidity
00:00 +2°C° 0.2 mm 7 mps 741 mmHg 93%
01:00 +2°C° 0.2 mm 7 mps 742 mmHg 93%
02:00 +2°C° 0.1 mm 7 mps 742 mmHg 91%
03:00 +1°C° 0.1 mm 6 mps 742 mmHg 88%
04:00 +1°C° 0.1 mm 5 mps 743 mmHg 85%
05:00 +1°C° 0 mm 5 mps 743 mmHg 86%
06:00 0°C° 0 mm 4 mps 743 mmHg 87%
07:00 +1°C° 0 mm 3 mps 744 mmHg 88%
08:00 +1°C° 0 mm 3 mps 744 mmHg 85%
09:00 +2°C° 0 mm 3 mps 744 mmHg 82%
10:00 +2°C° 0 mm 3 mps 744 mmHg 80%
11:00 +3°C° 0 mm 3 mps 744 mmHg 76%
12:00 +4°C° 0 mm 3 mps 744 mmHg 73%
13:00 +5°C° 0 mm 2 mps 744 mmHg 69%
14:00 +6°C° 0 mm 1 mps 743 mmHg 72%
15:00 +5°C° 0 mm 1 mps 743 mmHg 74%
16:00 +4°C° 0 mm 0 mps 743 mmHg 76%
17:00 +3°C° 0 mm 0 mps 742 mmHg 78%
18:00 +4°C° 0 mm 1 mps 742 mmHg 80%
19:00 +3°C° 0 mm 1 mps 742 mmHg 82%
20:00 +3°C° 0 mm 1 mps 742 mmHg 83%
21:00 +3°C° 0 mm 1 mps 741 mmHg 84%
22:00 +3°C° 0 mm 1 mps 741 mmHg 85%
23:00 +1°C° 0 mm 2 mps 741 mmHg 85%

24 January, Sunday

Time Temperature Precipitation Wind Pressure Humidity
00:00 +1°C° 0 mm 2 mps 741 mmHg 86%
01:00 +1°C° 0 mm 2 mps 740 mmHg 86%
02:00 +1°C° 0 mm 2 mps 740 mmHg 87%
03:00 +1°C° 0 mm 2 mps 740 mmHg 88%
04:00 +1°C° 0 mm 2 mps 740 mmHg 88%
05:00 +2°C° 0 mm 1 mps 740 mmHg 89%
06:00 +2°C° 0 mm 1 mps 740 mmHg 90%
07:00 +1°C° 0 mm 0 mps 740 mmHg 91%
08:00 +3°C° 0 mm 1 mps 740 mmHg 90%
09:00 +3°C° 0 mm 1 mps 741 mmHg 89%
10:00 +3°C° 0 mm 1 mps 741 mmHg 88%
11:00 +4°C° 0 mm 1 mps 741 mmHg 84%
12:00 +4°C° 0 mm 1 mps 741 mmHg 80%
13:00 +4°C° 0 mm 2 mps 740 mmHg 76%
14:00 +4°C° 0 mm 2 mps 741 mmHg 77%
15:00 +3°C° 0 mm 2 mps 741 mmHg 78%
16:00 +3°C° 0 mm 2 mps 741 mmHg 78%
17:00 +2°C° 0 mm 3 mps 741 mmHg 78%
18:00 +1°C° 0 mm 3 mps 741 mmHg 77%
19:00 0°C° 0 mm 4 mps 742 mmHg 77%
20:00 0°C° 0 mm 5 mps 742 mmHg 77%
21:00 -1°C° 0 mm 5 mps 742 mmHg 78%
22:00 -1°C° 0 mm 5 mps 742 mmHg 78%
23:00 -1°C° 0 mm 5 mps 742 mmHg 78%
Show more